"Time","Temp","Dewpoint","Humidity","Pressure","Direction","Speed","Gust","Precip","PrecipRate"
"00:04:58","74.9","73.1","94","29.82","238","0","0","0.00","0.00"
"00:09:58","74.8","73","94","29.82","238","0","0","0.00","0.00"
"00:14:58","74.8","73","94","29.83","238","0","0","0.00","0.00"
"00:19:57","74.7","72.9","94","29.83","238","0","0","0.00","0.00"
"00:24:56","74.6","72.8","94","29.83","238","0","0","0.00","0.00"
"00:29:59","74.4","72.6","94","29.83","238","0.1","1.2","0.00","0.00"
"00:34:58","74.2","72.4","94","29.83","238","0","0","0.00","0.00"
"00:39:58","74","72.2","94","29.83","238","0","0","0.00","0.00"
"00:44:57","74","72.2","94","29.83","238","0","0","0.00","0.00"
"00:49:56","73.9","72.4","95","29.83","238","0","0","0.00","0.00"
"00:54:59","73.8","72.3","95","29.83","238","0","0","0.00","0.00"
"00:59:58","73.7","72.2","95","29.84","238","0","0","0.00","0.00"
"01:04:56","73.6","72.1","95","29.84","238","0","0","0.00","0.00"
"01:09:59","73.6","72.2","95.2","29.84","238","0.3","2.3","0.00","0.00"
"01:14:56","73.6","72.4","95.9","29.84","238","0.7","2.3","0.00","0.00"
"01:19:58","73.7","72.5","96","29.84","238","1","2.3","0.00","0.00"
"01:24:57","73.6","72.4","95.8","29.84","238","0","0","0.00","0.00"
"01:29:56","73.6","72.1","95.1","29.84","238","0","0","0.00","0.00"
"01:34:59","73.4","71.9","95","29.84","238","0","0","0.00","0.00"
"01:39:59","73.3","71.8","95","29.84","238","0","0","0.00","0.00"
"01:44:59","73.2","71.7","95","29.84","238","0","0","0.00","0.00"
"01:49:57","73","71.5","95","29.84","238","0","0","0.00","0.00"
"01:54:56","73","71.5","95","29.84","238","0","0","0.00","0.00"
"01:59:59","72.9","71.5","95.6","29.84","238","0","0","0.00","0.00"
"02:04:57","72.8","71.5","95.6","29.84","238","0","0","0.00","0.00"
"02:09:57","72.7","71.3","95.2","29.84","238","0","0","0.00","0.00"
"02:14:57","72.6","71.2","95.3","29.84","238","0.4","1.2","0.00","0.00"
"02:19:56","72.5","71","95","29.84","238","0","1.2","0.00","0.00"
"02:24:59","72.3","70.8","95","29.84","238","0.1","1.2","0.00","0.00"
"02:29:58","72.2","70.7","95","29.84","238","0.1","1.2","0.00","0.00"
"02:34:56","72.1","70.6","95","29.84","238","0","0","0.00","0.00"
"02:39:56","72","70.5","95","29.84","238","0","0","0.00","0.00"
"02:44:59","71.9","70.4","95","29.84","238","0","0","0.00","0.00"
"02:49:58","71.9","70.4","95","29.84","238","0","0","0.00","0.00"
"02:54:57","71.8","70.3","95","29.84","238","0","0","0.00","0.00"
"02:59:56","71.7","70.2","95","29.85","238","0","0","0.00","0.00"
"03:04:58","71.6","70.1","95","29.85","238","0.1","1.2","0.00","0.00"
"03:09:57","71.5","69.8","94.1","29.85","238","0.5","1.2","0.00","0.00"
"03:14:57","71.6","69.7","93.7","29.85","238","0.3","1.2","0.00","0.00"
"03:19:56","71.7","69.6","93","29.85","238","0","0","0.00","0.00"
"03:24:58","71.8","69.7","93","29.85","238","0","0","0.00","0.00"
"03:29:58","71.9","69.5","92.3","29.85","238","0","0","0.00","0.00"
"03:34:57","71.9","69.4","92","29.85","238","0","0","0.00","0.00"
"03:39:57","71.9","69.4","92","29.85","238","0","0","0.00","0.00"
"03:44:56","71.8","69.3","92","29.86","238","0","0","0.00","0.00"
"03:49:58","71.7","69.3","92","29.86","238","0","0","0.00","0.00"
"03:54:57","71.7","69.3","92","29.86","238","0","0","0.00","0.00"
"03:59:56","71.7","69.3","92","29.86","238","0","0","0.00","0.00"
"04:04:58","71.5","69.1","92","29.86","238","0","0","0.00","0.00"
"04:09:57","71.4","69.3","92.8","29.86","238","0","0","0.00","0.00"
"04:14:58","71.4","69.2","92.9","29.87","238","0","0","0.00","0.00"
"04:19:56","71.3","68.9","92","29.87","238","0","0","0.00","0.00"
"04:24:59","71.2","69.1","92.9","29.87","238","0","0","0.00","0.00"
"04:29:58","71.1","69","93","29.87","238","0","0","0.00","0.00"
"04:34:57","71","68.9","93","29.87","238","0","0","0.00","0.00"
"04:39:57","70.9","68.8","93","29.87","238","0","0","0.00","0.00"
"04:44:56","70.8","68.7","93","29.87","238","0","0","0.00","0.00"
"04:49:59","70.8","68.7","93","29.87","238","0","0","0.00","0.00"
"04:54:58","70.8","68.8","93.3","29.87","238","0","0","0.00","0.00"
"04:59:57","70.9","68.6","92.4","29.88","238","0.1","2.3","0.00","0.00"
"05:04:56","70.9","68.5","92","29.88","238","0.3","1.2","0.00","0.00"
"05:09:59","71","68.3","91.3","29.88","238","0.4","1.2","0.00","0.00"
"05:14:56","71.1","68.3","91","29.88","238","0.1","1.2","0.00","0.00"
"05:19:59","71.1","68.3","91","29.88","238","0","1.2","0.00","0.00"
"05:24:58","71.1","68.3","91","29.88","238","0","1.2","0.00","0.00"
"05:29:57","71.1","68.5","91.3","29.89","238","0","1.2","0.00","0.00"
"05:34:56","71.1","68.3","91","29.89","240","0","1.2","0.00","0.00"
"05:39:57","71.1","68.3","91","29.89","240","0","0","0.00","0.00"
"05:44:56","71","67.9","90","29.89","240","0.1","1.2","0.00","0.00"
"05:49:58","70.9","67.8","90","29.89","240","0","1.2","0.00","0.00"
"05:54:57","70.9","67.8","90","29.89","240","0.1","1.2","0.00","0.00"
"05:59:56","70.8","67.7","90","29.90","240","0.1","2","0.00","0.00"
"06:04:58","70.9","67.8","90","29.90","240","0.2","2.3","0.00","0.00"
"06:09:59","70.9","67.8","90","29.90","240","0.1","2.3","0.00","0.00"
"06:14:59","70.9","67.8","90","29.90","234","0.1","1.2","0.00","0.00"
"06:19:58","70.8","67.7","90","29.90","173","0.1","1.2","0.00","0.00"
"06:24:57","70.8","67.9","90.6","29.90","173","0","0","0.00","0.00"
"06:29:56","70.7","67.9","91","29.91","173","0","0","0.00","0.00"
"06:34:59","70.6","67.8","91","29.91","173","0","0","0.00","0.00"
"06:39:59","70.6","67.8","91","29.91","173","0","1.2","0.00","0.00"
"06:44:58","70.6","67.8","91","29.92","173","0","0","0.00","0.00"
"06:49:56","70.8","68","91","29.92","173","0","0","0.00","0.00"
"06:54:59","71","68.2","91","29.92","173","0","1","0.00","0.00"
"06:59:57","71.2","68.4","91","29.92","173","0","1.2","0.00","0.00"
"07:04:59","71.3","68.5","91","29.92","173","0","0","0.00","0.00"
"07:09:58","71.4","68.7","91.3","29.92","173","0","0","0.00","0.00"
"07:14:58","71.6","69.2","92","29.92","173","0","0","0.00","0.00"
"07:19:57","71.7","69.2","91.6","29.92","173","0","0","0.00","0.00"
"07:24:59","71.9","69.1","91","29.92","173","0.1","1.2","0.00","0.00"
"07:29:58","72.1","69.3","91","29.93","173","0","0","0.00","0.00"
"07:34:56","72.4","69.6","91","29.93","173","0","0","0.00","0.00"
"07:39:56","72.7","70","91.3","29.93","173","0","0","0.00","0.00"
"07:44:59","73.1","70.2","90.4","29.93","173","0","0","0.00","0.00"
"07:49:57","73.6","70.7","90.7","29.93","173","0","0","0.00","0.00"
"07:54:56","74.2","71","89.7","29.93","173","0.1","1.2","0.00","0.00"
"07:59:59","74.9","70.6","86.5","29.94","116","0.8","4","0.00","0.00"
"08:04:57","75.9","70.5","83.5","29.94","5","0.5","2.3","0.00","0.00"
"08:09:56","76.9","70.9","81.6","29.94","5","0.3","2.3","0.00","0.00"
"08:14:56","77.8","71","79.8","29.94","5","0.6","2.3","0.00","0.00"
"08:19:58","78.5","71.2","78.4","29.94","2","0.9","4","0.00","0.00"
"08:24:58","79.1","71.1","76.4","29.94","355","1.4","5","0.00","0.00"
"08:29:58","79.7","71.7","76.5","29.94","355","0.5","2.3","0.00","0.00"
"08:34:57","80.2","71.9","75.9","29.94","355","0.5","2.3","0.00","0.00"
"08:39:59","80.7","71.7","74.2","29.94","355","0.5","3.5","0.00","0.00"
"08:44:59","81.1","71.6","73","29.95","323","1.5","6","0.00","0.00"
"08:49:58","81.5","71.1","70.8","29.95","281","2.5","6","0.00","0.00"
"08:54:57","81.6","70.5","69.2","29.95","324","2.8","9.2","0.00","0.00"
"08:59:57","81.8","71.6","71.3","29.95","329","1.2","3.5","0.00","0.00"
"09:04:56","82","71.6","70.8","29.95","235","2.3","6","0.00","0.00"
"09:09:56","82.1","72","71.5","29.95","212","1.4","4","0.00","0.00"
"09:14:58","82.3","72.3","71.6","29.95","236","0.9","3","0.00","0.00"
"09:19:57","82.5","72","70.6","29.95","307","2.4","5","0.00","0.00"
"09:24:57","82.5","71.5","69.6","29.95","304","2.6","5.8","0.00","0.00"
"09:29:56","82.6","72.1","70.7","29.95","241","1.5","4.6","0.00","0.00"
"09:34:56","82.9","72.8","71.8","29.95","210","1.8","4","0.00","0.00"
"09:39:57","83.1","72.1","69.7","29.95","309","2.7","6","0.00","0.00"
"09:44:56","83.2","72.2","69.4","29.95","297","2.4","6","0.00","0.00"
"09:49:56","83.4","72.3","69.5","29.95","289","2.6","8","0.00","0.00"
"09:54:55","83.5","72.2","68.8","29.95","302","3.2","8.1","0.00","0.00"
"09:59:59","83.7","72.4","68.9","29.96","313","2.3","6","0.00","0.00"
"10:04:59","84","72.2","67.9","29.96","331","2.6","6","0.00","0.00"
"10:09:59","84.2","72.7","68.6","29.96","326","2.5","7","0.00","0.00"
"10:14:58","84.5","72.3","67.1","29.96","333","2.9","5","0.00","0.00"
"10:19:57","84.6","72.5","67","29.96","300","2.2","7","0.00","0.00"
"10:24:56","84.9","73.2","68.3","29.96","259","0.9","5.8","0.00","0.00"
"10:29:56","85.3","72.7","66.4","29.96","291","1.5","6","0.00","0.00"
"10:34:59","85.3","72.3","65.3","29.96","311","2.2","5","0.00","0.00"
"10:39:56","85.3","72.8","66.3","29.96","312","2.3","5","0.00","0.00"
"10:44:56","85.6","73.3","66.9","29.96","332","2.1","6","0.00","0.00"
"10:49:56","85.6","72.5","65","29.96","348","3.3","10.4","0.00","0.00"
"10:54:59","85.7","73.4","66.7","29.96","250","2.6","7","0.00","0.00"
"10:59:59","86.1","73.4","66.1","29.97","270","2.9","8.1","0.00","0.00"
"11:04:58","86.3","72.9","64.6","29.97","211","2.4","8.1","0.00","0.00"
"11:09:58","86.6","73","64.1","29.97","252","2.3","6","0.00","0.00"
"11:14:56","86.7","73.2","64.4","29.97","232","2.7","6","0.00","0.00"
"11:19:56","86.8","73.2","63.9","29.96","207","2.8","7","0.00","0.00"
"11:24:59","87","73.3","63.9","29.96","256","2.3","5","0.00","0.00"
"11:29:59","87.4","72.7","61.8","29.96","309","2.1","6","0.00","0.00"
"11:34:58","87.9","73.8","63.2","29.96","222","2.2","6","0.00","0.00"
"11:39:56","88.3","72.4","59.5","29.96","250","1.8","5","0.00","0.00"
"11:44:59","88.4","72","58.5","29.96","331","2.9","9.2","0.00","0.00"
"11:49:59","88.6","72.1","58.3","29.96","288","2.1","6","0.00","0.00"
"11:54:58","88.8","72.1","57.9","29.96","322","2.3","5","0.00","0.00"
"11:59:57","88.9","71.2","56.2","29.96","285","3","9.2","0.00","0.00"
"12:04:56","88.8","71.4","56.7","29.96","324","2.3","7","0.00","0.00"
"12:09:57","88.9","71.8","57.4","29.96","249","3.1","6","0.00","0.00"
"12:14:59","89","71.9","57.1","29.96","261","1.8","6","0.00","0.00"
"12:19:58","89.1","70.9","55.1","29.96","256","3.6","7","0.00","0.00"
"12:24:58","89","70.2","54","29.96","322","1.5","6.9","0.00","0.00"
"12:29:57","89.4","71","54.8","29.96","177","2.2","5","0.00","0.00"
"12:34:57","89.6","70.5","53.6","29.96","200","1.9","5","0.00","0.00"
"12:39:58","89.7","71.3","54.8","29.96","243","1.2","6","0.00","0.00"
"12:44:57","89.9","70.9","53.7","29.96","281","1.7","6","0.00","0.00"
"12:49:57","90","70.9","53.6","29.95","340","2.6","7","0.00","0.00"
"12:54:57","90","70.5","53","29.95","312","2.9","6","0.00","0.00"
"12:59:57","90.2","71.9","55.2","29.95","233","2.2","5.8","0.00","0.00"
"13:04:56","90.4","71","53.1","29.95","231","2.1","4.6","0.00","0.00"
"13:09:56","90.6","72","54.5","29.95","222","2","4","0.00","0.00"
"13:14:58","90.8","71.3","52.9","29.95","246","2.7","6","0.00","0.00"
"13:19:57","90.7","70.6","51.8","29.95","193","4.4","10.4","0.00","0.00"
"13:24:57","90.7","71.4","53.3","29.95","195","2.9","6","0.00","0.00"
"13:29:56","90.8","71.8","54","29.95","203","3.4","7","0.00","0.00"
"13:34:56","91","71.7","53.5","29.95","189","2.8","6","0.00","0.00"
"13:39:57","91.1","71.9","53.6","29.95","174","2.4","11","0.00","0.00"
"13:44:56","91.3","71.7","52.9","29.95","214","3.2","11.5","0.00","0.00"
"13:49:56","91.5","71.5","52.2","29.95","245","2.5","6","0.00","0.00"
"13:54:59","91.7","73.1","54.8","29.95","234","2.5","10","0.00","0.00"
"13:59:58","91.7","72.2","53.1","29.95","227","2.9","9.2","0.00","0.00"
"14:04:57","91.7","71","51","29.95","192","2.7","6.9","0.00","0.00"
"14:09:58","91.8","70.9","50.7","29.95","188","4.5","10.4","0.00","0.00"
"14:14:59","91.9","71.7","51.9","29.95","216","3.5","9.2","0.00","0.00"
"14:19:58","92","71.4","51.2","29.95","192","1.7","6","0.00","0.00"
"14:24:58","92.3","70.7","49.5","29.95","200","2.9","6","0.00","0.00"
